sat.trackr.live / text

‹ back to catalog

STARLINK-5192

NORAD 54074 · 2022-136Z

PAYLOAD ACTIVE UNKNOWN

§ Identity

Operator
Country
US
Launch date
2022-10-20
Launch site
AFETR
Launch vehicle
Mass (kg)
RCS (m²)

Purposes: comms

External: N2YO · Heavens-Above · Gunter

§ Orbital elements

Epoch: 2026-09-20T07:59:23.685792Z

Period
93.79 min
Inclination
53.1618°
Eccentricity
0.0001293
Mean motion
15.35401350 rev/d
Perigee alt
458.8 km
Apogee alt
460.6 km
Semi-major
6,837.9 km
B*
2.2935e-5
RAAN
180.8892°
Arg perigee
83.6223°
Mean anomaly
276.4927°
Rev number
21,635

§ Raw data

STARLINK-51921 54074U 22136Z   26263.33291303  .00000420  00000+0  22935-4 0  99972 54074  53.1618 180.8892 0001293  83.6223 276.4927 15.35401350216352

JSON: /api/v1/satellites/54074 · /tle

For live sub-satellite position, see the globe view (requires WebGL).

§ Visibility from observer

Set your observer location to see the next 7 days of passes ≥ 10°. The values pass through the URL so the page stays shareable.

No JS? Fill the form by hand. The geolocation button needs JavaScript.